Location: Famechon
(49.7599°N, 2.0615°E)
Time: 08:19:27
(UTC+00:00)

DMSP B5D2-2 - Visible Passes

Search period start: 24 September 2023 00:00
Search period end: 04 October 2023 00:00
Orbit: 789 x 803 km, 98.3° (Epoch: 23 September)

Date Brightness Start Highest point End Pass type
(mag) Time Alt. Az. Time Alt. Az. Time Alt. Az.
24 Sep 6.3 02:50:20 10° ESE 02:54:34 25° ENE 02:58:50 10° N visible
24 Sep 4.1 04:28:43 10° S 04:33:52 58° W 04:39:05 10° NNW visible
24 Sep 6.0 18:17:34 10° N 18:22:20 35° WNW 18:27:04 10° SW visible
25 Sep 6.9 02:24:00 10° E 02:27:14 17° NE 02:30:28 10° NNE visible
25 Sep 4.1 04:00:53 10° SSE 04:06:08 86° ENE 04:11:27 10° NNW visible
25 Sep 7.3 19:31:44 10° NNW 19:33:22 11° NW 19:35:00 10° WNW visible
26 Sep 7.3 01:58:48 10° ENE 01:59:59 11° NE 02:01:10 10° NE visible
26 Sep 4.9 03:33:26 10° SE 03:38:31 53° ENE 03:43:38 10° N visible
26 Sep 7.0 19:02:42 10° NNW 19:06:07 18° NW 19:09:31 10° W visible
27 Sep 5.8 03:06:20 10° SE 03:10:59 33° ENE 03:15:41 10° N visible
27 Sep 4.4 04:45:34 10° SSW 04:50:32 42° W 04:55:33 10° NNW visible
27 Sep 6.4 18:34:23 10° N 18:38:46 27° WNW 18:43:07 10° WSW visible
28 Sep 6.5 02:39:40 10° ESE 02:43:35 22° ENE 02:47:31 10° N visible
28 Sep 4.0 04:17:29 10° S 04:22:43 71° WSW 04:28:01 10° NNW visible
28 Sep 5.6 18:06:20 10° N 18:11:18 42° WNW 18:16:13 10° SW visible
29 Sep 7.0 02:13:36 10° E 02:16:17 14° NE 02:18:57 10° NNE visible
29 Sep 4.3 03:49:48 10° SSE 03:55:02 72° ENE 04:00:18 10° N visible
29 Sep 7.1 19:19:55 10° NNW 19:22:26 14° NW 19:24:56 10° W visible
30 Sep 5.2 03:22:29 10° SE 03:27:26 44° ENE 03:32:26 10° N visible
30 Sep 4.8 05:02:36 10° SSW 05:07:14 31° W 05:11:54 10° NNW visible
30 Sep 6.8 18:51:18 10° N 18:55:08 21° WNW 18:58:57 10° WSW visible
01 Oct 6.1 02:55:33 10° ESE 02:59:57 28° ENE 03:04:24 10° N visible
01 Oct 4.2 04:34:15 10° S 04:39:21 51° W 04:44:31 10° NNW visible
01 Oct 6.1 18:23:06 10° N 18:27:44 32° WNW 18:32:20 10° SW visible
02 Oct 6.7 02:29:04 10° E 02:32:35 18° NE 02:36:07 10° NNE visible
02 Oct 4.0 04:06:19 10° SSE 04:11:34 85° WSW 04:16:54 10° NNW visible
02 Oct 5.2 17:55:07 10° N 18:00:13 50° WNW 18:05:17 10° SW visible
02 Oct 7.4 19:38:02 10° NW 19:38:41 10° NW 19:39:20 10° NW visible
03 Oct 7.2 02:03:24 10° ENE 02:05:19 12° NE 02:07:14 10° NNE visible
03 Oct 4.6 03:38:46 10° SSE 03:43:55 59° ENE 03:49:07 10° N visible
03 Oct 5.2 05:19:50 10° SW 05:23:57 23° W 05:28:07 10° NW visible
03 Oct 7.0 19:08:21 10° NNW 19:11:27 16° NW 19:14:33 10° W visible
